Time,TemperatureF,DewpointF,PressureIn,WindDirection,WindDirectionDegrees,WindSpeedMPH,WindSpeedGustMPH,Humidity,HourlyPrecipIn,Conditions,Clouds,dailyrainin,SoftwareType,DateUTC
2013-04-04 00:00:00,46.7,43.3,30.05,NE,44,4.0,4.0,88,0.05,,,0.22,WeatherCatV1.00B22,2013-04-04 04:00:00,
2013-04-04 00:01:00,46.7,43.6,30.05,ENE,60,4.0,6.0,89,0.05,,,0.00,WeatherCatV1.00B22,2013-04-04 04:01:00,
2013-04-04 00:03:00,46.6,43.5,30.05,NNE,32,4.0,7.0,89,0.05,,,0.00,WeatherCatV1.00B22,2013-04-04 04:03:00,
2013-04-04 00:06:00,46.6,43.5,30.05,NNE,33,5.0,7.0,89,0.05,,,0.00,WeatherCatV1.00B22,2013-04-04 04:06:00,
2013-04-04 00:11:00,46.6,43.5,30.05,NE,48,5.0,6.0,89,0.05,,,0.01,WeatherCatV1.00B22,2013-04-04 04:11:00,
2013-04-04 00:16:00,46.6,43.5,30.05,NE,45,5.0,6.0,89,0.05,,,0.01,WeatherCatV1.00B22,2013-04-04 04:16:00,
2013-04-04 00:21:00,46.5,43.4,30.04,NE,54,4.0,7.0,89,0.06,,,0.02,WeatherCatV1.00B22,2013-04-04 04:21:00,
2013-04-04 00:26:00,46.4,43.3,30.04,NE,38,6.0,8.0,89,0.06,,,0.02,WeatherCatV1.00B22,2013-04-04 04:26:00,
2013-04-04 00:31:00,46.4,43.3,30.04,NE,40,4.0,8.0,89,0.04,,,0.02,WeatherCatV1.00B22,2013-04-04 04:31:00,
2013-04-04 00:36:00,46.4,43.3,30.04,ENE,77,3.0,6.0,89,0.00,,,0.02,WeatherCatV1.00B22,2013-04-04 04:36:00,
2013-04-04 00:41:00,46.4,43.3,30.04,NE,50,5.0,6.0,89,0.00,,,0.03,WeatherCatV1.00B22,2013-04-04 04:41:00,
2013-04-04 00:46:00,46.4,43.6,30.04,NE,48,5.0,9.0,90,0.00,,,0.03,WeatherCatV1.00B22,2013-04-04 04:46:00,
2013-04-04 00:51:00,46.3,43.2,30.04,ENE,63,5.0,8.0,89,0.00,,,0.03,WeatherCatV1.00B22,2013-04-04 04:51:00,
2013-04-04 00:56:00,46.3,43.5,30.04,ENE,59,4.0,7.0,90,0.00,,,0.03,WeatherCatV1.00B22,2013-04-04 04:56:00,
2013-04-04 01:01:00,46.3,43.2,30.04,ENE,59,7.0,8.0,89,0.00,,,0.04,WeatherCatV1.00B22,2013-04-04 05:01:00,
2013-04-04 01:06:00,46.2,43.1,30.04,NE,51,6.0,7.0,89,0.00,,,0.04,WeatherCatV1.00B22,2013-04-04 05:06:00,
2013-04-04 01:11:00,46.2,43.4,30.04,NE,42,6.0,6.0,90,0.00,,,0.04,WeatherCatV1.00B22,2013-04-04 05:11:00,
2013-04-04 01:16:00,46.3,43.5,30.04,ENE,59,4.0,5.0,90,0.00,,,0.04,WeatherCatV1.00B22,2013-04-04 05:16:00,
2013-04-04 01:21:00,46.3,43.5,30.04,NE,47,5.0,7.0,90,0.00,,,0.04,WeatherCatV1.00B22,2013-04-04 05:21:00,
2013-04-04 01:26:00,46.2,43.4,30.04,ENE,57,3.0,4.0,90,0.00,,,0.04,WeatherCatV1.00B22,2013-04-04 05:26:00,
2013-04-04 01:31:00,46.2,43.1,30.04,ENE,69,3.0,6.0,89,0.00,,,0.04,WeatherCatV1.00B22,2013-04-04 05:31:00,
2013-04-04 01:36:00,46.3,43.5,30.04,East,84,2.0,4.0,90,0.00,,,0.04,WeatherCatV1.00B22,2013-04-04 05:36:00,
2013-04-04 01:41:00,46.3,43.2,30.04,NE,49,4.0,4.0,89,0.00,,,0.04,WeatherCatV1.00B22,2013-04-04 05:41:00,
2013-04-04 01:46:00,46.3,42.9,30.04,ENE,73,3.0,5.0,88,0.00,,,0.04,WeatherCatV1.00B22,2013-04-04 05:46:00,
2013-04-04 01:51:00,46.3,42.9,30.04,NE,41,5.0,5.0,88,0.00,,,0.04,WeatherCatV1.00B22,2013-04-04 05:51:00,
2013-04-04 01:56:00,46.3,43.2,30.03,NE,44,6.0,6.0,89,0.00,,,0.04,WeatherCatV1.00B22,2013-04-04 05:56:00,
2013-04-04 02:01:00,46.3,43.2,30.03,NE,42,6.0,7.0,89,0.00,,,0.04,WeatherCatV1.00B22,2013-04-04 06:01:00,
2013-04-04 02:06:00,46.3,43.2,30.04,NE,46,4.0,6.0,89,0.00,,,0.04,WeatherCatV1.00B22,2013-04-04 06:06:00,
2013-04-04 02:11:00,46.3,43.2,30.03,NE,47,5.0,7.0,89,0.00,,,0.04,WeatherCatV1.00B22,2013-04-04 06:11:00,
2013-04-04 02:16:00,46.4,43.3,30.03,NE,53,4.0,5.0,89,0.00,,,0.04,WeatherCatV1.00B22,2013-04-04 06:16:00,
2013-04-04 02:21:00,46.3,42.9,30.03,ENE,76,4.0,6.0,88,0.00,,,0.04,WeatherCatV1.00B22,2013-04-04 06:21:00,
2013-04-04 02:26:00,46.4,42.7,30.03,NE,38,4.0,8.0,87,0.00,,,0.04,WeatherCatV1.00B22,2013-04-04 06:26:00,
2013-04-04 02:31:00,46.5,42.8,30.02,NE,53,5.0,5.0,87,0.00,,,0.04,WeatherCatV1.00B22,2013-04-04 06:31:00,
2013-04-04 02:36:00,46.4,42.7,30.02,ENE,57,5.0,7.0,87,0.00,,,0.04,WeatherCatV1.00B22,2013-04-04 06:36:00,
2013-04-04 02:41:00,46.4,42.7,30.02,East,82,3.0,4.0,87,0.00,,,0.04,WeatherCatV1.00B22,2013-04-04 06:41:00,
2013-04-04 02:46:00,46.4,43.0,30.02,NE,44,4.0,4.0,88,0.00,,,0.04,WeatherCatV1.00B22,2013-04-04 06:46:00,
2013-04-04 02:51:00,46.3,42.6,30.02,NE,42,4.0,6.0,87,0.00,,,0.05,WeatherCatV1.00B22,2013-04-04 06:51:00,
2013-04-04 02:56:00,46.3,42.9,30.02,NE,42,5.0,6.0,88,0.00,,,0.05,WeatherCatV1.00B22,2013-04-04 06:56:00,
2013-04-04 03:01:00,46.2,42.8,30.02,NE,55,3.0,4.0,88,0.00,,,0.05,WeatherCatV1.00B22,2013-04-04 07:01:00,
2013-04-04 03:06:00,46.2,42.8,30.02,NE,53,4.0,5.0,88,0.00,,,0.05,WeatherCatV1.00B22,2013-04-04 07:06:00,
2013-04-04 03:11:00,46.2,42.8,30.02,NE,48,4.0,5.0,88,0.00,,,0.06,WeatherCatV1.00B22,2013-04-04 07:11:00,
2013-04-04 03:16:00,46.2,42.8,30.02,NE,50,3.0,4.0,88,0.00,,,0.06,WeatherCatV1.00B22,2013-04-04 07:16:00,
2013-04-04 03:21:00,46.1,42.7,30.01,NE,46,6.0,7.0,88,0.00,,,0.06,WeatherCatV1.00B22,2013-04-04 07:21:00,
2013-04-04 03:26:00,46.1,42.7,30.02,NE,46,5.0,5.0,88,0.00,,,0.06,WeatherCatV1.00B22,2013-04-04 07:26:00,
2013-04-04 03:31:00,46.2,43.1,30.01,NE,39,4.0,5.0,89,0.00,,,0.06,WeatherCatV1.00B22,2013-04-04 07:31:00,
2013-04-04 03:36:00,46.2,42.8,30.02,NE,44,3.0,5.0,88,0.00,,,0.06,WeatherCatV1.00B22,2013-04-04 07:36:00,
2013-04-04 03:41:00,46.2,43.1,30.01,NE,45,3.0,4.0,89,0.00,,,0.06,WeatherCatV1.00B22,2013-04-04 07:41:00,
2013-04-04 03:46:00,46.1,43.0,30.01,NE,43,2.0,4.0,89,0.00,,,0.06,WeatherCatV1.00B22,2013-04-04 07:46:00,
2013-04-04 03:51:00,46.1,43.3,30.01,ENE,57,2.0,2.0,90,0.00,,,0.06,WeatherCatV1.00B22,2013-04-04 07:51:00,
2013-04-04 03:56:00,46.2,43.4,30.01,NNE,29,4.0,4.0,90,0.00,,,0.06,WeatherCatV1.00B22,2013-04-04 07:56:00,
2013-04-04 04:01:00,46.2,43.4,30.00,NE,38,3.0,4.0,90,0.00,,,0.06,WeatherCatV1.00B22,2013-04-04 08:01:00,
2013-04-04 04:06:00,46.2,43.4,30.00,NE,40,4.0,5.0,90,0.00,,,0.06,WeatherCatV1.00B22,2013-04-04 08:06:00,
2013-04-04 04:11:00,46.3,43.5,30.00,NE,47,5.0,6.0,90,0.00,,,0.06,WeatherCatV1.00B22,2013-04-04 08:11:00,
2013-04-04 04:16:00,46.3,43.2,29.99,NE,48,8.0,9.0,89,0.00,,,0.06,WeatherCatV1.00B22,2013-04-04 08:16:00,
2013-04-04 04:21:00,46.4,42.4,29.99,ENE,58,7.0,10.0,86,0.00,,,0.06,WeatherCatV1.00B22,2013-04-04 08:21:00,
2013-04-04 04:26:00,46.6,42.0,29.99,NE,40,8.0,8.0,84,0.00,,,0.06,WeatherCatV1.00B22,2013-04-04 08:26:00,
2013-04-04 04:31:00,46.7,41.8,29.99,NE,44,7.0,9.0,83,0.00,,,0.06,WeatherCatV1.00B22,2013-04-04 08:31:00,
2013-04-04 04:36:00,46.8,41.9,29.99,NE,41,6.0,8.0,83,0.00,,,0.06,WeatherCatV1.00B22,2013-04-04 08:36:00,
2013-04-04 04:41:00,46.8,41.9,30.00,NE,46,6.0,7.0,83,0.00,,,0.06,WeatherCatV1.00B22,2013-04-04 08:41:00,
2013-04-04 04:46:00,46.8,41.6,30.00,ENE,61,4.0,6.0,82,0.00,,,0.06,WeatherCatV1.00B22,2013-04-04 08:46:00,
2013-04-04 04:51:00,46.9,42.0,30.00,NE,47,6.0,7.0,83,0.00,,,0.06,WeatherCatV1.00B22,2013-04-04 08:51:00,
2013-04-04 04:56:00,47.0,41.8,29.99,NE,45,8.0,9.0,82,0.00,,,0.06,WeatherCatV1.00B22,2013-04-04 08:56:00,
2013-04-04 05:01:00,47.0,41.5,29.99,ENE,59,7.0,8.0,81,0.00,,,0.06,WeatherCatV1.00B22,2013-04-04 09:01:00,
2013-04-04 05:06:00,47.1,41.6,29.99,NE,55,5.0,7.0,81,0.00,,,0.06,WeatherCatV1.00B22,2013-04-04 09:06:00,
2013-04-04 05:11:00,47.2,41.3,29.98,NE,49,5.0,6.0,80,0.00,,,0.06,WeatherCatV1.00B22,2013-04-04 09:11:00,
2013-04-04 05:16:00,47.2,41.0,29.98,NE,50,7.0,8.0,79,0.00,,,0.06,WeatherCatV1.00B22,2013-04-04 09:16:00,
2013-04-04 05:21:00,47.3,40.8,29.98,NE,38,10.0,12.0,78,0.00,,,0.06,WeatherCatV1.00B22,2013-04-04 09:21:00,
2013-04-04 05:26:00,47.6,40.8,29.98,NE,38,9.0,10.0,77,0.00,,,0.06,WeatherCatV1.00B22,2013-04-04 09:26:00,
2013-04-04 05:31:00,47.7,41.2,29.98,NE,55,5.0,11.0,78,0.00,,,0.06,WeatherCatV1.00B22,2013-04-04 09:31:00,
2013-04-04 05:36:00,47.9,40.0,29.98,East,84,9.0,9.0,74,0.00,,,0.07,WeatherCatV1.00B22,2013-04-04 09:36:00,
2013-04-04 05:41:00,48.0,39.8,29.98,NE,49,7.0,12.0,73,0.00,,,0.07,WeatherCatV1.00B22,2013-04-04 09:41:00,
2013-04-04 05:46:00,48.1,39.9,29.98,NE,41,8.0,12.0,73,0.00,,,0.07,WeatherCatV1.00B22,2013-04-04 09:46:00,
2013-04-04 05:51:00,48.3,39.7,29.98,East,84,7.0,11.0,72,0.00,,,0.07,WeatherCatV1.00B22,2013-04-04 09:51:00,
2013-04-04 05:56:00,48.4,39.1,29.97,East,80,8.0,12.0,70,0.00,,,0.07,WeatherCatV1.00B22,2013-04-04 09:56:00,
2013-04-04 06:01:00,48.5,39.5,29.98,East,87,7.0,9.0,71,0.00,,,0.07,WeatherCatV1.00B22,2013-04-04 10:01:00,
2013-04-04 06:06:00,48.4,38.7,29.98,NE,54,7.0,13.0,69,0.00,,,0.07,WeatherCatV1.00B22,2013-04-04 10:06:00,
2013-04-04 06:11:00,48.4,39.4,29.98,East,91,6.0,10.0,71,0.00,,,0.07,WeatherCatV1.00B22,2013-04-04 10:11:00,
2013-04-04 06:16:00,48.4,39.8,29.97,NE,50,8.0,10.0,72,0.00,,,0.07,WeatherCatV1.00B22,2013-04-04 10:16:00,
2013-04-04 06:21:00,48.4,39.1,29.98,East,87,7.0,11.0,70,0.00,,,0.07,WeatherCatV1.00B22,2013-04-04 10:21:00,
2013-04-04 06:26:00,48.4,39.4,29.98,East,90,8.0,11.0,71,0.00,,,0.07,WeatherCatV1.00B22,2013-04-04 10:26:00,
2013-04-04 06:31:00,48.3,39.3,29.97,ENE,71,9.0,10.0,71,0.00,,,0.07,WeatherCatV1.00B22,2013-04-04 10:31:00,
2013-04-04 06:36:00,48.3,39.3,29.97,ENE,61,7.0,11.0,71,0.00,,,0.07,WeatherCatV1.00B22,2013-04-04 10:36:00,
2013-04-04 06:41:00,48.3,39.3,29.97,ENE,73,7.0,10.0,71,0.00,,,0.07,WeatherCatV1.00B22,2013-04-04 10:41:00,
2013-04-04 06:46:00,48.3,39.7,29.98,East,79,5.0,9.0,72,0.00,,,0.07,WeatherCatV1.00B22,2013-04-04 10:46:00,
2013-04-04 06:51:00,48.3,39.7,29.97,ENE,60,5.0,7.0,72,0.00,,,0.07,WeatherCatV1.00B22,2013-04-04 10:51:00,
2013-04-04 06:56:00,48.3,39.0,29.97,NE,50,6.0,8.0,70,0.00,,,0.07,WeatherCatV1.00B22,2013-04-04 10:56:00,
2013-04-04 07:01:00,48.2,40.0,29.97,East,84,7.0,8.0,73,0.00,,,0.07,WeatherCatV1.00B22,2013-04-04 11:01:00,
2013-04-04 07:06:00,47.9,39.7,29.97,ENE,69,9.0,10.0,73,0.00,,,0.07,WeatherCatV1.00B22,2013-04-04 11:06:00,
2013-04-04 07:11:00,47.8,39.2,29.97,NE,42,8.0,12.0,72,0.00,,,0.07,WeatherCatV1.00B22,2013-04-04 11:11:00,
2013-04-04 07:16:00,47.7,39.8,29.97,East,83,7.0,10.0,74,0.00,,,0.07,WeatherCatV1.00B22,2013-04-04 11:16:00,
2013-04-04 07:21:00,47.7,39.5,29.97,NNE,32,10.0,15.0,73,0.00,,,0.07,WeatherCatV1.00B22,2013-04-04 11:21:00,
2013-04-04 07:26:00,47.6,39.4,29.96,ENE,59,7.0,13.0,73,0.00,,,0.07,WeatherCatV1.00B22,2013-04-04 11:26:00,
2013-04-04 07:31:00,47.5,40.3,29.96,SE,129,6.0,10.0,76,0.00,,,0.07,WeatherCatV1.00B22,2013-04-04 11:31:00,
2013-04-04 07:36:00,47.3,39.4,29.96,NE,43,11.0,15.0,74,0.00,,,0.07,WeatherCatV1.00B22,2013-04-04 11:36:00,
2013-04-04 07:41:00,47.3,39.1,29.96,NE,51,8.0,15.0,73,0.00,,,0.07,WeatherCatV1.00B22,2013-04-04 11:41:00,
2013-04-04 07:46:00,47.3,39.4,29.96,NE,45,10.0,10.0,74,0.00,,,0.07,WeatherCatV1.00B22,2013-04-04 11:46:00,
2013-04-04 07:51:00,47.4,39.2,29.95,NE,40,13.0,18.0,73,0.00,,,0.07,WeatherCatV1.00B22,2013-04-04 11:51:00,
2013-04-04 07:56:00,47.5,38.6,29.97,ENE,70,5.0,9.0,71,0.00,,,0.07,WeatherCatV1.00B22,2013-04-04 11:56:00,
2013-04-04 08:01:00,47.6,38.7,29.97,ENE,75,9.0,10.0,71,0.00,,,0.07,WeatherCatV1.00B22,2013-04-04 12:01:00,
2013-04-04 08:06:00,47.6,37.2,29.97,East,86,8.0,12.0,67,0.00,,,0.07,WeatherCatV1.00B22,2013-04-04 12:06:00,
2013-04-04 08:11:00,47.6,37.2,29.98,NE,56,11.0,14.0,67,0.00,,,0.07,WeatherCatV1.00B22,2013-04-04 12:11:00,
2013-04-04 08:16:00,47.4,37.0,29.97,NE,48,11.0,16.0,67,0.00,,,0.07,WeatherCatV1.00B22,2013-04-04 12:16:00,
2013-04-04 08:21:00,47.3,37.3,29.97,NE,53,13.0,14.0,68,0.00,,,0.07,WeatherCatV1.00B22,2013-04-04 12:21:00,
2013-04-04 08:26:00,47.1,37.5,29.97,ENE,69,10.0,14.0,69,0.00,,,0.07,WeatherCatV1.00B22,2013-04-04 12:26:00,
2013-04-04 08:31:00,47.1,37.5,29.97,NE,48,7.0,11.0,69,0.00,,,0.07,WeatherCatV1.00B22,2013-04-04 12:31:00,
2013-04-04 08:36:00,47.1,37.8,29.96,NE,51,10.0,16.0,70,0.00,,,0.07,WeatherCatV1.00B22,2013-04-04 12:36:00,
2013-04-04 08:41:00,47.0,37.0,29.97,ENE,78,10.0,10.0,68,0.00,,,0.07,WeatherCatV1.00B22,2013-04-04 12:41:00,
2013-04-04 08:46:00,47.1,36.7,29.97,East,86,11.0,15.0,67,0.00,,,0.07,WeatherCatV1.00B22,2013-04-04 12:46:00,
2013-04-04 08:51:00,47.2,37.2,29.98,ESE,109,10.0,13.0,68,0.00,,,0.07,WeatherCatV1.00B22,2013-04-04 12:51:00,
2013-04-04 08:56:00,47.2,37.2,29.97,NE,45,20.0,20.0,68,0.00,,,0.07,WeatherCatV1.00B22,2013-04-04 12:56:00,
2013-04-04 09:01:00,47.0,37.4,29.97,NE,52,9.0,14.0,69,0.00,,,0.07,WeatherCatV1.00B22,2013-04-04 13:01:00,
2013-04-04 09:06:00,46.7,37.1,29.96,NNE,32,11.0,18.0,69,0.00,,,0.07,WeatherCatV1.00B22,2013-04-04 13:06:00,
2013-04-04 09:11:00,46.2,37.0,29.97,ENE,69,10.0,17.0,70,0.00,,,0.07,WeatherCatV1.00B22,2013-04-04 13:11:00,
2013-04-04 09:16:00,46.0,37.8,29.97,East,98,10.0,16.0,73,0.00,,,0.07,WeatherCatV1.00B22,2013-04-04 13:16:00,
2013-04-04 09:21:00,45.8,37.3,29.97,ENE,77,8.0,14.0,72,0.00,,,0.07,WeatherCatV1.00B22,2013-04-04 13:21:00,
2013-04-04 09:26:00,45.7,36.8,29.97,NE,54,6.0,13.0,71,0.00,,,0.07,WeatherCatV1.00B22,2013-04-04 13:26:00,
2013-04-04 09:31:00,45.7,37.2,29.98,NNE,23,9.0,16.0,72,0.00,,,0.07,WeatherCatV1.00B22,2013-04-04 13:31:00,
2013-04-04 09:36:00,45.5,37.4,29.99,NE,50,10.0,10.0,73,0.00,,,0.07,WeatherCatV1.00B22,2013-04-04 13:36:00,
2013-04-04 09:41:00,45.4,36.6,29.99,NE,44,12.0,16.0,71,0.00,,,0.07,WeatherCatV1.00B22,2013-04-04 13:41:00,
2013-04-04 09:46:00,45.1,37.7,29.99,NE,42,8.0,13.0,75,0.00,,,0.08,WeatherCatV1.00B22,2013-04-04 13:46:00,
2013-04-04 09:51:00,44.8,37.4,29.99,NE,49,12.0,16.0,75,0.00,,,0.08,WeatherCatV1.00B22,2013-04-04 13:51:00,
2013-04-04 09:56:00,44.4,37.6,29.99,NE,51,8.0,9.0,77,0.00,,,0.08,WeatherCatV1.00B22,2013-04-04 13:56:00,
2013-04-04 10:01:00,44.1,37.7,29.98,NNE,26,8.0,10.0,78,0.00,,,0.08,WeatherCatV1.00B22,2013-04-04 14:01:00,
2013-04-04 10:06:00,43.9,37.8,29.98,NE,40,9.0,10.0,79,0.00,,,0.08,WeatherCatV1.00B22,2013-04-04 14:06:00,
2013-04-04 10:11:00,43.7,37.3,29.98,ENE,57,13.0,14.0,78,0.00,,,0.08,WeatherCatV1.00B22,2013-04-04 14:11:00,
2013-04-04 10:16:00,43.6,37.2,29.99,NE,46,7.0,12.0,78,0.00,,,0.08,WeatherCatV1.00B22,2013-04-04 14:16:00,
2013-04-04 10:21:00,43.6,37.8,29.99,NE,53,8.0,9.0,80,0.00,,,0.08,WeatherCatV1.00B22,2013-04-04 14:21:00,
2013-04-04 10:27:00,43.4,38.0,29.98,NE,53,6.0,9.0,81,0.00,,,0.08,WeatherCatV1.00B22,2013-04-04 14:27:00,
2013-04-04 10:32:00,43.2,37.5,29.98,NE,35,11.0,11.0,80,0.00,,,0.08,WeatherCatV1.00B22,2013-04-04 14:32:00,
2013-04-04 10:36:00,43.0,37.3,29.97,ENE,57,12.0,12.0,80,0.00,,,0.08,WeatherCatV1.00B22,2013-04-04 14:36:00,
2013-04-04 10:41:00,42.8,38.0,29.98,East,85,8.0,11.0,83,0.00,,,0.08,WeatherCatV1.00B22,2013-04-04 14:41:00,
2013-04-04 10:46:00,42.5,37.4,29.99,NNE,30,6.0,11.0,82,0.00,,,0.08,WeatherCatV1.00B22,2013-04-04 14:46:00,
2013-04-04 10:51:00,42.3,37.5,29.99,NE,49,4.0,11.0,83,0.00,,,0.08,WeatherCatV1.00B22,2013-04-04 14:51:00,
2013-04-04 10:57:00,42.2,37.4,30.00,ENE,57,9.0,11.0,83,0.00,,,0.08,WeatherCatV1.00B22,2013-04-04 14:57:00,
2013-04-04 11:02:00,42.1,37.6,30.00,ENE,77,5.0,10.0,84,0.00,,,0.08,WeatherCatV1.00B22,2013-04-04 15:02:00,
2013-04-04 11:07:00,42.0,37.5,30.00,NE,50,12.0,18.0,84,0.00,,,0.08,WeatherCatV1.00B22,2013-04-04 15:07:00,
2013-04-04 11:12:00,41.8,37.0,30.01,NNE,27,8.0,8.0,83,0.00,,,0.08,WeatherCatV1.00B22,2013-04-04 15:12:00,
2013-04-04 11:17:00,41.8,37.6,30.01,ENE,61,13.0,14.0,85,0.00,,,0.08,WeatherCatV1.00B22,2013-04-04 15:17:00,
2013-04-04 11:22:00,41.7,37.5,30.00,NE,53,10.0,10.0,85,0.00,,,0.08,WeatherCatV1.00B22,2013-04-04 15:22:00,
2013-04-04 11:27:00,41.6,37.4,29.99,ENE,59,14.0,15.0,85,0.00,,,0.08,WeatherCatV1.00B22,2013-04-04 15:27:00,
2013-04-04 11:32:00,41.4,36.9,30.00,ENE,57,9.0,22.0,84,0.00,,,0.08,WeatherCatV1.00B22,2013-04-04 15:32:00,
2013-04-04 11:37:00,41.2,37.0,29.99,ENE,76,7.0,12.0,85,0.00,,,0.08,WeatherCatV1.00B22,2013-04-04 15:37:00,
2013-04-04 11:42:00,41.3,37.1,29.99,NE,50,12.0,13.0,85,0.00,,,0.08,WeatherCatV1.00B22,2013-04-04 15:42:00,
2013-04-04 11:47:00,41.2,37.3,29.99,NE,49,8.0,10.0,86,0.00,,,0.08,WeatherCatV1.00B22,2013-04-04 15:47:00,
2013-04-04 11:52:00,41.2,37.3,29.99,NE,45,11.0,17.0,86,0.00,,,0.08,WeatherCatV1.00B22,2013-04-04 15:52:00,
2013-04-04 11:57:00,41.2,37.6,29.98,ENE,63,14.0,14.0,87,0.00,,,0.08,WeatherCatV1.00B22,2013-04-04 15:57:00,
2013-04-04 12:02:00,41.2,37.6,29.99,NE,49,8.0,10.0,87,0.00,,,0.08,WeatherCatV1.00B22,2013-04-04 16:02:00,
2013-04-04 12:07:00,41.2,37.9,29.98,NNE,31,7.0,9.0,88,0.00,,,0.08,WeatherCatV1.00B22,2013-04-04 16:07:00,
2013-04-04 12:12:00,41.2,37.9,29.98,NE,40,8.0,11.0,88,0.00,,,0.09,WeatherCatV1.00B22,2013-04-04 16:12:00,
2013-04-04 12:17:00,41.0,37.4,29.98,East,82,13.0,13.0,87,0.00,,,0.09,WeatherCatV1.00B22,2013-04-04 16:17:00,
2013-04-04 12:22:00,41.0,38.0,29.99,NE,47,9.0,17.0,89,0.00,,,0.09,WeatherCatV1.00B22,2013-04-04 16:22:00,
2013-04-04 12:27:00,40.8,37.8,29.99,NNE,30,10.0,15.0,89,0.00,,,0.09,WeatherCatV1.00B22,2013-04-04 16:27:00,
2013-04-04 12:32:00,40.6,37.6,30.00,NE,52,9.0,15.0,89,0.00,,,0.09,WeatherCatV1.00B22,2013-04-04 16:32:00,
2013-04-04 12:37:00,40.5,37.5,30.00,ENE,61,5.0,9.0,89,0.00,,,0.09,WeatherCatV1.00B22,2013-04-04 16:37:00,
2013-04-04 12:42:00,40.3,37.6,30.00,ENE,58,5.0,10.0,90,0.00,,,0.09,WeatherCatV1.00B22,2013-04-04 16:42:00,
2013-04-04 12:47:00,40.2,37.5,29.99,NE,53,10.0,13.0,90,0.00,,,0.09,WeatherCatV1.00B22,2013-04-04 16:47:00,
2013-04-04 12:52:00,40.1,37.4,29.99,NE,36,9.0,13.0,90,0.00,,,0.10,WeatherCatV1.00B22,2013-04-04 16:52:00,
2013-04-04 12:57:00,40.1,37.4,29.98,NE,36,11.0,11.0,90,0.00,,,0.10,WeatherCatV1.00B22,2013-04-04 16:57:00,
2013-04-04 13:02:00,40.0,37.3,29.98,ENE,65,10.0,13.0,90,0.00,,,0.10,WeatherCatV1.00B22,2013-04-04 17:02:00,
2013-04-04 13:07:00,40.0,37.6,29.97,NE,55,12.0,17.0,91,0.00,,,0.10,WeatherCatV1.00B22,2013-04-04 17:07:00,
2013-04-04 13:12:00,40.0,37.3,29.96,NE,46,10.0,16.0,90,0.00,,,0.10,WeatherCatV1.00B22,2013-04-04 17:12:00,
2013-04-04 13:17:00,40.0,37.6,29.96,NE,54,11.0,15.0,91,0.00,,,0.10,WeatherCatV1.00B22,2013-04-04 17:17:00,
2013-04-04 13:21:00,40.0,37.3,29.97,ESE,105,3.0,7.0,90,0.00,,,0.10,WeatherCatV1.00B22,2013-04-04 17:21:00,
2013-04-04 13:27:00,39.9,37.5,29.97,NE,34,7.0,9.0,91,0.00,,,0.10,WeatherCatV1.00B22,2013-04-04 17:27:00,
2013-04-04 13:32:00,39.8,37.4,29.96,NE,34,10.0,12.0,91,0.00,,,0.10,WeatherCatV1.00B22,2013-04-04 17:32:00,
2013-04-04 13:36:00,39.9,37.8,29.95,NE,50,14.0,14.0,92,0.00,,,0.10,WeatherCatV1.00B22,2013-04-04 17:36:00,
2013-04-04 13:42:00,39.8,37.4,29.95,NNE,30,13.0,16.0,91,0.00,,,0.10,WeatherCatV1.00B22,2013-04-04 17:42:00,
2013-04-04 13:46:00,39.7,37.3,29.95,NNE,24,11.0,11.0,91,0.00,,,0.10,WeatherCatV1.00B22,2013-04-04 17:46:00,
2013-04-04 13:51:00,39.7,37.6,29.95,NNE,31,13.0,14.0,92,0.00,,,0.10,WeatherCatV1.00B22,2013-04-04 17:51:00,
2013-04-04 13:56:00,39.6,37.2,29.95,NE,34,12.0,14.0,91,0.00,,,0.10,WeatherCatV1.00B22,2013-04-04 17:56:00,
2013-04-04 14:01:00,39.5,37.1,29.95,NE,42,9.0,13.0,91,0.00,,,0.10,WeatherCatV1.00B22,2013-04-04 18:01:00,
2013-04-04 14:06:00,39.4,37.0,29.95,NE,47,8.0,13.0,91,0.00,,,0.10,WeatherCatV1.00B22,2013-04-04 18:06:00,
2013-04-04 14:11:00,39.4,37.0,29.95,NE,55,10.0,12.0,91,0.00,,,0.10,WeatherCatV1.00B22,2013-04-04 18:11:00,
2013-04-04 14:16:00,39.5,37.4,29.94,NE,44,14.0,15.0,92,0.00,,,0.10,WeatherCatV1.00B22,2013-04-04 18:16:00,
2013-04-04 14:21:00,39.5,37.4,29.94,NNE,29,11.0,20.0,92,0.00,,,0.10,WeatherCatV1.00B22,2013-04-04 18:21:00,
2013-04-04 14:26:00,39.5,37.1,29.94,ESE,109,9.0,11.0,91,0.00,,,0.10,WeatherCatV1.00B22,2013-04-04 18:26:00,
2013-04-04 14:31:00,39.4,37.0,29.93,ENE,65,11.0,13.0,91,0.00,,,0.10,WeatherCatV1.00B22,2013-04-04 18:31:00,
2013-04-04 14:38:00,39.5,37.6,29.92,NE,42,14.0,14.0,93,0.00,,,0.10,WeatherCatV1.00B22,2013-04-04 18:38:00,
2013-04-04 14:43:00,39.5,37.1,29.92,NE,54,7.0,10.0,91,0.00,,,0.10,WeatherCatV1.00B22,2013-04-04 18:43:00,
2013-04-04 14:48:00,39.5,37.1,29.92,ENE,67,12.0,13.0,91,0.00,,,0.10,WeatherCatV1.00B22,2013-04-04 18:48:00,
2013-04-04 14:53:00,39.5,37.1,29.92,ENE,59,11.0,15.0,91,0.00,,,0.10,WeatherCatV1.00B22,2013-04-04 18:53:00,
2013-04-04 14:58:00,39.7,37.3,29.91,NE,36,12.0,15.0,91,0.00,,,0.10,WeatherCatV1.00B22,2013-04-04 18:58:00,
2013-04-04 15:03:00,39.7,37.0,29.91,NE,53,10.0,16.0,90,0.00,,,0.10,WeatherCatV1.00B22,2013-04-04 19:03:00,
2013-04-04 15:08:00,39.8,37.7,29.91,East,96,7.0,13.0,92,0.00,,,0.10,WeatherCatV1.00B22,2013-04-04 19:08:00,
2013-04-04 15:13:00,39.7,37.3,29.91,NE,55,9.0,11.0,91,0.00,,,0.10,WeatherCatV1.00B22,2013-04-04 19:13:00,
2013-04-04 15:18:00,39.7,37.0,29.91,NE,47,8.0,12.0,90,0.00,,,0.10,WeatherCatV1.00B22,2013-04-04 19:18:00,
2013-04-04 15:23:00,39.6,36.9,29.91,NE,44,11.0,12.0,90,0.00,,,0.10,WeatherCatV1.00B22,2013-04-04 19:23:00,
2013-04-04 15:28:00,39.7,37.3,29.91,NE,47,11.0,11.0,91,0.00,,,0.10,WeatherCatV1.00B22,2013-04-04 19:28:00,
2013-04-04 15:33:00,39.8,37.4,29.91,NE,46,13.0,14.0,91,0.00,,,0.10,WeatherCatV1.00B22,2013-04-04 19:33:00,
2013-04-04 15:38:00,39.8,37.4,29.91,NE,46,9.0,14.0,91,0.00,,,0.10,WeatherCatV1.00B22,2013-04-04 19:38:00,
2013-04-04 15:43:00,39.7,37.3,29.91,ENE,57,8.0,11.0,91,0.00,,,0.10,WeatherCatV1.00B22,2013-04-04 19:43:00,
2013-04-04 15:48:00,39.7,37.3,29.90,East,86,9.0,15.0,91,0.00,,,0.10,WeatherCatV1.00B22,2013-04-04 19:48:00,
2013-04-04 15:53:00,39.6,37.2,29.90,NE,44,11.0,14.0,91,0.00,,,0.10,WeatherCatV1.00B22,2013-04-04 19:53:00,
2013-04-04 15:58:00,39.7,37.6,29.90,NE,54,7.0,12.0,92,0.00,,,0.10,WeatherCatV1.00B22,2013-04-04 19:58:00,
2013-04-04 16:03:00,39.8,37.7,29.90,NNE,32,7.0,9.0,92,0.00,,,0.10,WeatherCatV1.00B22,2013-04-04 20:03:00,
2013-04-04 16:08:00,39.8,37.7,29.90,ENE,74,3.0,10.0,92,0.00,,,0.10,WeatherCatV1.00B22,2013-04-04 20:08:00,
2013-04-04 16:13:00,39.7,37.6,29.89,ENE,59,10.0,12.0,92,0.00,,,0.10,WeatherCatV1.00B22,2013-04-04 20:13:00,
2013-04-04 16:18:00,39.8,37.9,29.89,ENE,60,8.0,9.0,93,0.00,,,0.10,WeatherCatV1.00B22,2013-04-04 20:18:00,
2013-04-04 16:23:00,39.8,37.9,29.89,ENE,65,4.0,7.0,93,0.00,,,0.10,WeatherCatV1.00B22,2013-04-04 20:23:00,
2013-04-04 16:28:00,39.8,37.7,29.89,NE,53,6.0,11.0,92,0.00,,,0.10,WeatherCatV1.00B22,2013-04-04 20:28:00,
2013-04-04 16:33:00,39.8,37.9,29.89,NE,53,7.0,12.0,93,0.00,,,0.10,WeatherCatV1.00B22,2013-04-04 20:33:00,
2013-04-04 16:38:00,39.9,38.0,29.89,NE,49,8.0,8.0,93,0.00,,,0.10,WeatherCatV1.00B22,2013-04-04 20:38:00,
2013-04-04 16:43:00,40.0,38.1,29.89,NE,53,6.0,11.0,93,0.00,,,0.10,WeatherCatV1.00B22,2013-04-04 20:43:00,
2013-04-04 16:48:00,40.0,38.1,29.89,NE,51,5.0,8.0,93,0.00,,,0.10,WeatherCatV1.00B22,2013-04-04 20:48:00,
2013-04-04 16:53:00,40.1,38.2,29.89,NE,53,5.0,9.0,93,0.00,,,0.10,WeatherCatV1.00B22,2013-04-04 20:53:00,
2013-04-04 16:58:00,40.2,38.3,29.89,NE,49,6.0,9.0,93,0.00,,,0.10,WeatherCatV1.00B22,2013-04-04 20:58:00,
2013-04-04 17:03:00,40.1,38.0,29.88,ENE,62,8.0,10.0,92,0.00,,,0.10,WeatherCatV1.00B22,2013-04-04 21:03:00,
2013-04-04 17:08:00,40.1,38.2,29.88,NE,44,6.0,9.0,93,0.00,,,0.10,WeatherCatV1.00B22,2013-04-04 21:08:00,
2013-04-04 17:13:00,40.1,38.2,29.88,NNE,26,9.0,11.0,93,0.00,,,0.10,WeatherCatV1.00B22,2013-04-04 21:13:00,
2013-04-04 17:18:00,40.2,38.3,29.88,NE,44,9.0,12.0,93,0.00,,,0.11,WeatherCatV1.00B22,2013-04-04 21:18:00,
2013-04-04 17:23:00,40.2,38.3,29.88,NE,36,7.0,9.0,93,0.00,,,0.11,WeatherCatV1.00B22,2013-04-04 21:23:00,
2013-04-04 17:28:00,40.2,38.3,29.88,ENE,62,7.0,9.0,93,0.00,,,0.11,WeatherCatV1.00B22,2013-04-04 21:28:00,
2013-04-04 17:33:00,40.3,38.4,29.88,NE,48,6.0,7.0,93,0.00,,,0.11,WeatherCatV1.00B22,2013-04-04 21:33:00,
2013-04-04 17:38:00,40.4,38.5,29.88,NE,39,6.0,9.0,93,0.00,,,0.11,WeatherCatV1.00B22,2013-04-04 21:38:00,
2013-04-04 17:43:00,40.4,38.5,29.88,NE,42,6.0,7.0,93,0.00,,,0.11,WeatherCatV1.00B22,2013-04-04 21:43:00,
2013-04-04 17:48:00,40.4,38.5,29.88,NNE,32,7.0,10.0,93,0.00,,,0.11,WeatherCatV1.00B22,2013-04-04 21:48:00,
2013-04-04 17:53:00,40.5,38.6,29.88,NE,47,8.0,8.0,93,0.00,,,0.11,WeatherCatV1.00B22,2013-04-04 21:53:00,
2013-04-04 17:58:00,40.5,38.6,29.88,NE,47,6.0,8.0,93,0.00,,,0.11,WeatherCatV1.00B22,2013-04-04 21:58:00,
2013-04-04 18:03:00,40.5,38.6,29.88,NE,51,6.0,8.0,93,0.00,,,0.11,WeatherCatV1.00B22,2013-04-04 22:03:00,
2013-04-04 18:08:00,40.5,38.6,29.88,ENE,63,3.0,6.0,93,0.00,,,0.11,WeatherCatV1.00B22,2013-04-04 22:08:00,
2013-04-04 18:13:00,40.5,38.9,29.88,NE,47,7.0,7.0,94,0.00,,,0.11,WeatherCatV1.00B22,2013-04-04 22:13:00,
2013-04-04 18:18:00,40.6,39.0,29.88,NE,46,4.0,7.0,94,0.00,,,0.11,WeatherCatV1.00B22,2013-04-04 22:18:00,
2013-04-04 18:23:00,40.7,39.1,29.88,NE,46,6.0,8.0,94,0.00,,,0.11,WeatherCatV1.00B22,2013-04-04 22:23:00,
2013-04-04 18:28:00,40.8,39.2,29.88,NE,51,4.0,6.0,94,0.00,,,0.11,WeatherCatV1.00B22,2013-04-04 22:28:00,
2013-04-04 18:33:00,40.9,39.3,29.87,ENE,68,3.0,6.0,94,0.00,,,0.11,WeatherCatV1.00B22,2013-04-04 22:33:00,
2013-04-04 18:38:00,40.9,39.3,29.87,NE,53,6.0,8.0,94,0.00,,,0.11,WeatherCatV1.00B22,2013-04-04 22:38:00,
2013-04-04 18:43:00,40.9,39.3,29.87,NE,48,6.0,7.0,94,0.00,,,0.11,WeatherCatV1.00B22,2013-04-04 22:43:00,
2013-04-04 18:48:00,40.8,39.2,29.87,NE,49,6.0,7.0,94,0.00,,,0.11,WeatherCatV1.00B22,2013-04-04 22:48:00,
2013-04-04 18:53:00,40.9,39.3,29.87,ENE,60,5.0,8.0,94,0.00,,,0.11,WeatherCatV1.00B22,2013-04-04 22:53:00,
2013-04-04 18:58:00,40.9,39.3,29.87,NE,39,7.0,9.0,94,0.00,,,0.11,WeatherCatV1.00B22,2013-04-04 22:58:00,
2013-04-04 19:03:00,40.9,39.3,29.87,NE,36,5.0,8.0,94,0.00,,,0.11,WeatherCatV1.00B22,2013-04-04 23:03:00,
2013-04-04 19:08:00,40.9,39.3,29.87,ENE,71,3.0,7.0,94,0.00,,,0.11,WeatherCatV1.00B22,2013-04-04 23:08:00,
2013-04-04 19:13:00,40.9,39.3,29.87,NE,49,5.0,8.0,94,0.00,,,0.11,WeatherCatV1.00B22,2013-04-04 23:13:00,
2013-04-04 19:18:00,41.0,39.4,29.87,NE,55,5.0,5.0,94,0.00,,,0.11,WeatherCatV1.00B22,2013-04-04 23:18:00,
2013-04-04 19:23:00,41.0,39.4,29.87,ENE,74,4.0,7.0,94,0.00,,,0.11,WeatherCatV1.00B22,2013-04-04 23:23:00,
2013-04-04 19:28:00,41.0,39.4,29.87,NE,42,7.0,7.0,94,0.00,,,0.11,WeatherCatV1.00B22,2013-04-04 23:28:00,
2013-04-04 19:33:00,41.1,39.5,29.87,NE,53,4.0,8.0,94,0.00,,,0.11,WeatherCatV1.00B22,2013-04-04 23:33:00,
2013-04-04 19:38:00,41.1,39.5,29.86,NNE,33,8.0,9.0,94,0.00,,,0.11,WeatherCatV1.00B22,2013-04-04 23:38:00,
2013-04-04 19:43:00,41.1,39.5,29.86,NE,37,7.0,7.0,94,0.00,,,0.11,WeatherCatV1.00B22,2013-04-04 23:43:00,
2013-04-04 19:48:00,41.1,39.5,29.86,NE,53,4.0,6.0,94,0.00,,,0.11,WeatherCatV1.00B22,2013-04-04 23:48:00,
2013-04-04 19:53:00,41.1,39.5,29.86,NE,46,5.0,5.0,94,0.00,,,0.11,WeatherCatV1.00B22,2013-04-04 23:53:00,
2013-04-04 19:58:00,41.1,39.5,29.86,East,80,1.0,3.0,94,0.00,,,0.11,WeatherCatV1.00B22,2013-04-04 23:58:00,
2013-04-04 20:03:00,41.0,39.4,29.86,NE,50,4.0,5.0,94,0.00,,,0.11,WeatherCatV1.00B22,2013-04-05 00:03:00,
2013-04-04 20:08:00,41.1,39.5,29.86,ESE,108,4.0,5.0,94,0.00,,,0.11,WeatherCatV1.00B22,2013-04-05 00:08:00,
2013-04-04 20:13:00,41.2,39.9,29.86,East,79,5.0,8.0,95,0.00,,,0.11,WeatherCatV1.00B22,2013-04-05 00:13:00,
2013-04-04 20:18:00,41.1,39.5,29.86,ENE,76,4.0,5.0,94,0.00,,,0.11,WeatherCatV1.00B22,2013-04-05 00:18:00,
2013-04-04 20:23:00,41.1,39.5,29.86,ENE,76,2.0,3.0,94,0.00,,,0.11,WeatherCatV1.00B22,2013-04-05 00:23:00,
2013-04-04 20:28:00,41.1,39.5,29.86,NE,42,5.0,6.0,94,0.00,,,0.11,WeatherCatV1.00B22,2013-04-05 00:28:00,
2013-04-04 20:33:00,41.1,39.5,29.86,ENE,61,5.0,7.0,94,0.00,,,0.11,WeatherCatV1.00B22,2013-04-05 00:33:00,
2013-04-04 20:38:00,41.2,39.6,29.86,East,82,3.0,4.0,94,0.00,,,0.11,WeatherCatV1.00B22,2013-04-05 00:38:00,
2013-04-04 20:43:00,41.2,39.9,29.86,NE,53,4.0,5.0,95,0.00,,,0.11,WeatherCatV1.00B22,2013-04-05 00:43:00,
2013-04-04 20:48:00,41.3,40.0,29.86,SE,129,2.0,8.0,95,0.00,,,0.11,WeatherCatV1.00B22,2013-04-05 00:48:00,
2013-04-04 20:53:00,41.3,40.0,29.86,NE,43,5.0,7.0,95,0.00,,,0.11,WeatherCatV1.00B22,2013-04-05 00:53:00,
2013-04-04 20:58:00,41.1,39.5,29.86,ENE,66,3.0,7.0,94,0.00,,,0.11,WeatherCatV1.00B22,2013-04-05 00:58:00,
2013-04-04 21:03:00,41.2,39.9,29.86,NE,47,4.0,5.0,95,0.00,,,0.11,WeatherCatV1.00B22,2013-04-05 01:03:00,
2013-04-04 21:08:00,41.2,39.9,29.86,ENE,57,3.0,6.0,95,0.00,,,0.11,WeatherCatV1.00B22,2013-04-05 01:08:00,
2013-04-04 21:13:00,41.3,40.0,29.86,NE,40,3.0,5.0,95,0.00,,,0.11,WeatherCatV1.00B22,2013-04-05 01:13:00,
2013-04-04 21:18:00,41.3,39.7,29.86,NE,51,5.0,7.0,94,0.00,,,0.11,WeatherCatV1.00B22,2013-04-05 01:18:00,
2013-04-04 21:23:00,41.2,39.6,29.86,ENE,69,2.0,5.0,94,0.00,,,0.11,WeatherCatV1.00B22,2013-04-05 01:23:00,
2013-04-04 21:28:00,41.2,39.9,29.86,NE,51,3.0,8.0,95,0.00,,,0.11,WeatherCatV1.00B22,2013-04-05 01:28:00,
2013-04-04 21:33:00,41.3,40.0,29.86,NE,45,5.0,8.0,95,0.00,,,0.11,WeatherCatV1.00B22,2013-04-05 01:33:00,
2013-04-04 21:38:00,41.3,40.0,29.86,NE,42,3.0,6.0,95,0.00,,,0.11,WeatherCatV1.00B22,2013-04-05 01:38:00,
2013-04-04 21:43:00,41.2,39.6,29.86,ENE,78,2.0,6.0,94,0.00,,,0.11,WeatherCatV1.00B22,2013-04-05 01:43:00,
2013-04-04 21:48:00,41.2,39.9,29.87,NNE,15,5.0,7.0,95,0.00,,,0.11,WeatherCatV1.00B22,2013-04-05 01:48:00,
2013-04-04 21:53:00,41.2,39.9,29.86,ENE,74,4.0,6.0,95,0.00,,,0.11,WeatherCatV1.00B22,2013-04-05 01:53:00,
2013-04-04 21:58:00,41.3,40.0,29.86,NE,49,5.0,6.0,95,0.00,,,0.11,WeatherCatV1.00B22,2013-04-05 01:58:00,
2013-04-04 22:03:00,41.3,40.0,29.86,ENE,66,4.0,4.0,95,0.00,,,0.11,WeatherCatV1.00B22,2013-04-05 02:03:00,
2013-04-04 22:08:00,41.4,40.1,29.86,ENE,57,2.0,4.0,95,0.00,,,0.11,WeatherCatV1.00B22,2013-04-05 02:08:00,
2013-04-04 22:13:00,41.3,40.0,29.86,NE,50,5.0,6.0,95,0.00,,,0.11,WeatherCatV1.00B22,2013-04-05 02:13:00,
2013-04-04 22:18:00,41.3,40.0,29.86,ENE,62,3.0,4.0,95,0.00,,,0.11,WeatherCatV1.00B22,2013-04-05 02:18:00,
2013-04-04 22:23:00,41.3,40.0,29.86,ENE,63,5.0,7.0,95,0.00,,,0.11,WeatherCatV1.00B22,2013-04-05 02:23:00,
2013-04-04 22:28:00,41.3,40.0,29.86,ENE,61,4.0,6.0,95,0.00,,,0.11,WeatherCatV1.00B22,2013-04-05 02:28:00,
2013-04-04 22:33:00,41.3,40.0,29.86,ENE,76,4.0,8.0,95,0.00,,,0.11,WeatherCatV1.00B22,2013-04-05 02:33:00,
2013-04-04 22:38:00,41.3,39.7,29.86,ENE,61,3.0,5.0,94,0.00,,,0.11,WeatherCatV1.00B22,2013-04-05 02:38:00,
2013-04-04 22:43:00,41.3,40.0,29.85,ENE,62,2.0,4.0,95,0.00,,,0.11,WeatherCatV1.00B22,2013-04-05 02:43:00,
2013-04-04 22:48:00,41.4,40.1,29.85,ENE,59,3.0,4.0,95,0.00,,,0.11,WeatherCatV1.00B22,2013-04-05 02:48:00,
2013-04-04 22:53:00,41.3,40.0,29.86,ENE,57,3.0,4.0,95,0.00,,,0.11,WeatherCatV1.00B22,2013-04-05 02:53:00,
2013-04-04 22:58:00,41.3,40.0,29.86,NE,40,6.0,7.0,95,0.00,,,0.11,WeatherCatV1.00B22,2013-04-05 02:58:00,
2013-04-04 23:03:00,41.4,40.1,29.86,ENE,61,3.0,4.0,95,0.00,,,0.11,WeatherCatV1.00B22,2013-04-05 03:03:00,
2013-04-04 23:08:00,41.5,40.2,29.85,East,82,5.0,6.0,95,0.00,,,0.11,WeatherCatV1.00B22,2013-04-05 03:08:00,
2013-04-04 23:13:00,41.5,40.2,29.85,ESE,102,3.0,5.0,95,0.00,,,0.11,WeatherCatV1.00B22,2013-04-05 03:13:00,
2013-04-04 23:18:00,41.5,40.2,29.84,East,82,3.0,5.0,95,0.00,,,0.11,WeatherCatV1.00B22,2013-04-05 03:18:00,
2013-04-04 23:23:00,41.5,40.2,29.84,East,82,3.0,6.0,95,0.00,,,0.11,WeatherCatV1.00B22,2013-04-05 03:23:00,
2013-04-04 23:28:00,41.4,40.1,29.84,East,83,5.0,6.0,95,0.00,,,0.11,WeatherCatV1.00B22,2013-04-05 03:28:00,
2013-04-04 23:33:00,41.4,40.1,29.85,ESE,122,4.0,7.0,95,0.00,,,0.11,WeatherCatV1.00B22,2013-04-05 03:33:00,
2013-04-04 23:38:00,41.3,40.0,29.85,SE,126,4.0,5.0,95,0.00,,,0.11,WeatherCatV1.00B22,2013-04-05 03:38:00,
2013-04-04 23:43:00,41.3,39.7,29.85,ENE,61,2.0,5.0,94,0.00,,,0.11,WeatherCatV1.00B22,2013-04-05 03:43:00,
2013-04-04 23:48:00,41.3,39.7,29.86,NE,53,3.0,3.0,94,0.00,,,0.11,WeatherCatV1.00B22,2013-04-05 03:48:00,
2013-04-04 23:53:00,41.3,39.7,29.86,ESE,111,2.0,2.0,94,0.00,,,0.11,WeatherCatV1.00B22,2013-04-05 03:53:00,
2013-04-04 23:58:00,41.3,39.7,29.86,ESE,115,2.0,3.0,94,0.00,,,0.11,WeatherCatV1.00B22,2013-04-05 03:58:00,